• In Hungary
  • List of Countries
  • For 7 days
  • Water Temperature
  • Satellite Maps
  • Weather Map
  • News
  • Weather Widgets
  • user-avatar
    Login

    Hourly Weather Zbarazh

    Today, 22 September, Saturday

    Time Temperature Precipitation Wind Pressure Humidity
    00:00 +17°C° 0 mm 3 mps 727 mmHg 54%
    01:00 +16°C° 0 mm 3 mps 727 mmHg 57%
    02:00 +16°C° 0 mm 2 mps 727 mmHg 61%
    03:00 +15°C° 0 mm 2 mps 727 mmHg 62%
    04:00 +14°C° 0 mm 3 mps 727 mmHg 63%
    05:00 +14°C° 0 mm 3 mps 726 mmHg 65%
    06:00 +16°C° 0 mm 3 mps 727 mmHg 63%
    07:00 +17°C° 0 mm 4 mps 727 mmHg 61%
    08:00 +18°C° 0 mm 4 mps 727 mmHg 60%
    09:00 +19°C° 0 mm 5 mps 728 mmHg 61%
    10:00 +19°C° 0 mm 6 mps 728 mmHg 62%
    11:00 +20°C° 0 mm 7 mps 729 mmHg 63%
    12:00 +17°C° 0 mm 7 mps 729 mmHg 66%
    13:00 +16°C° 0 mm 6 mps 729 mmHg 69%
    14:00 +14°C° 0 mm 6 mps 729 mmHg 72%
    15:00 +13°C° 0.4 mm 6 mps 729 mmHg 75%
    16:00 +12°C° 0.4 mm 5 mps 729 mmHg 77%
    17:00 +10°C° 0.4 mm 5 mps 729 mmHg 80%
    18:00 +11°C° 1 mm 4 mps 730 mmHg 84%
    19:00 +10°C° 1 mm 3 mps 730 mmHg 87%
    20:00 +9°C° 1 mm 3 mps 730 mmHg 90%
    21:00 +9°C° 0 mm 3 mps 730 mmHg 91%
    22:00 +8°C° 0 mm 2 mps 730 mmHg 92%
    23:00 +8°C° 0 mm 2 mps 730 mmHg 94%

    Tomorrow, 23 September, Sunday

    Time Temperature Precipitation Wind Pressure Humidity
    00:00 +8°C° 0 mm 2 mps 730 mmHg 91%
    01:00 +8°C° 0 mm 2 mps 730 mmHg 89%
    02:00 +8°C° 0 mm 2 mps 730 mmHg 87%
    03:00 +8°C° 0 mm 3 mps 730 mmHg 86%
    04:00 +8°C° 0 mm 3 mps 730 mmHg 85%
    05:00 +8°C° 0 mm 3 mps 730 mmHg 84%
    06:00 +9°C° 0 mm 3 mps 730 mmHg 82%
    07:00 +9°C° 0 mm 3 mps 730 mmHg 79%
    08:00 +10°C° 0 mm 4 mps 730 mmHg 76%
    09:00 +12°C° 0 mm 4 mps 730 mmHg 69%
    10:00 +14°C° 0 mm 4 mps 730 mmHg 62%
    11:00 +15°C° 0 mm 5 mps 730 mmHg 55%
    12:00 +16°C° 0 mm 5 mps 730 mmHg 53%
    13:00 +16°C° 0 mm 5 mps 730 mmHg 51%
    14:00 +17°C° 0 mm 5 mps 730 mmHg 49%
    15:00 +17°C° 0 mm 4 mps 729 mmHg 52%
    16:00 +17°C° 0 mm 3 mps 729 mmHg 56%
    17:00 +16°C° 0 mm 3 mps 728 mmHg 60%
    18:00 +14°C° 0 mm 3 mps 728 mmHg 62%
    19:00 +14°C° 0 mm 3 mps 728 mmHg 64%
    20:00 +13°C° 0 mm 3 mps 728 mmHg 67%
    21:00 +13°C° 0.1 mm 3 mps 727 mmHg 66%
    22:00 +13°C° 0.1 mm 4 mps 726 mmHg 66%
    23:00 +13°C° 0.1 mm 4 mps 725 mmHg 65%

    Day after tomorrow, 24 September, Monday

    Time Temperature Precipitation Wind Pressure Humidity
    00:00 +13°C° 0 mm 5 mps 724 mmHg 62%
    01:00 +14°C° 0 mm 6 mps 723 mmHg 58%
    02:00 +14°C° 0 mm 7 mps 722 mmHg 55%
    03:00 +14°C° 0.2 mm 7 mps 721 mmHg 59%
    04:00 +14°C° 0.2 mm 7 mps 720 mmHg 63%
    05:00 +14°C° 0.2 mm 7 mps 719 mmHg 67%
    06:00 +14°C° 0.8 mm 7 mps 719 mmHg 73%
    07:00 +14°C° 0.8 mm 7 mps 719 mmHg 79%
    08:00 +15°C° 0.8 mm 7 mps 719 mmHg 84%
    09:00 +12°C° 0.4 mm 9 mps 720 mmHg 82%
    10:00 +11°C° 0.4 mm 10 mps 721 mmHg 79%
    11:00 +8°C° 0.4 mm 11 mps 722 mmHg 77%
    12:00 +8°C° 0 mm 11 mps 723 mmHg 73%
    13:00 +9°C° 0 mm 11 mps 724 mmHg 70%
    14:00 +9°C° 0 mm 10 mps 726 mmHg 66%
    15:00 +9°C° 0.1 mm 10 mps 726 mmHg 67%
    16:00 +9°C° 0.1 mm 10 mps 726 mmHg 68%
    17:00 +8°C° 0.1 mm 9 mps 727 mmHg 69%
    18:00 +8°C° 0 mm 9 mps 727 mmHg 69%
    19:00 +7°C° 0 mm 8 mps 728 mmHg 69%
    20:00 +6°C° 0 mm 7 mps 728 mmHg 69%
    21:00 +6°C° 0 mm 7 mps 729 mmHg 68%
    22:00 +5°C° 0 mm 7 mps 729 mmHg 67%
    23:00 +5°C° 0 mm 7 mps 729 mmHg 66%

    25 September, Tuesday

    Time Temperature Precipitation Wind Pressure Humidity
    00:00 +5°C° 0 mm 8 mps 729 mmHg 69%
    01:00 +5°C° 0 mm 8 mps 730 mmHg 72%
    02:00 +5°C° 0 mm 8 mps 730 mmHg 75%
    03:00 +5°C° 0.3 mm 9 mps 730 mmHg 76%
    04:00 +5°C° 0.3 mm 9 mps 731 mmHg 77%
    05:00 +3°C° 0.3 mm 9 mps 731 mmHg 78%
    06:00 +3°C° 0.1 mm 9 mps 732 mmHg 77%
    07:00 +3°C° 0.1 mm 9 mps 733 mmHg 76%
    08:00 +4°C° 0.1 mm 8 mps 734 mmHg 75%
    09:00 +5°C° 0 mm 8 mps 734 mmHg 69%
    10:00 +6°C° 0 mm 8 mps 735 mmHg 63%
    11:00 +7°C° 0 mm 9 mps 735 mmHg 57%
    12:00 +7°C° 0.2 mm 8 mps 736 mmHg 56%
    13:00 +9°C° 0.2 mm 8 mps 736 mmHg 55%
    14:00 +9°C° 0.2 mm 8 mps 736 mmHg 53%
    15:00 +9°C° 0.1 mm 8 mps 736 mmHg 55%
    16:00 +8°C° 0.1 mm 7 mps 736 mmHg 57%
    17:00 +8°C° 0.1 mm 7 mps 737 mmHg 58%
    18:00 +7°C° 0 mm 6 mps 737 mmHg 62%
    19:00 +6°C° 0 mm 5 mps 738 mmHg 66%
    20:00 +5°C° 0 mm 5 mps 738 mmHg 70%
    21:00 +5°C° 0 mm 5 mps 739 mmHg 71%
    22:00 +3°C° 0 mm 5 mps 739 mmHg 71%
    23:00 +3°C° 0 mm 5 mps 740 mmHg 72%

    26 September, Wednesday

    Time Temperature Precipitation Wind Pressure Humidity
    00:00 +4°C° 0 mm 4 mps 740 mmHg 73%
    01:00 +3°C° 0 mm 4 mps 740 mmHg 75%
    02:00 +3°C° 0 mm 4 mps 741 mmHg 76%
    03:00 +1°C° 0 mm 4 mps 741 mmHg 77%
    04:00 +2°C° 0 mm 3 mps 741 mmHg 77%
    05:00 +2°C° 0 mm 3 mps 741 mmHg 78%
    06:00 +3°C° 0 mm 4 mps 741 mmHg 74%
    07:00 +4°C° 0 mm 4 mps 741 mmHg 70%
    08:00 +5°C° 0 mm 5 mps 741 mmHg 66%
    09:00 +6°C° 0 mm 5 mps 741 mmHg 61%
    10:00 +8°C° 0 mm 5 mps 741 mmHg 55%
    11:00 +10°C° 0 mm 6 mps 741 mmHg 49%
    12:00 +10°C° 0 mm 6 mps 741 mmHg 48%
    13:00 +11°C° 0 mm 6 mps 740 mmHg 47%
    14:00 +11°C° 0 mm 6 mps 740 mmHg 47%
    15:00 +12°C° 0 mm 5 mps 739 mmHg 49%
    16:00 +11°C° 0 mm 4 mps 739 mmHg 52%
    17:00 +11°C° 0 mm 3 mps 738 mmHg 54%
    18:00 +10°C° 0 mm 3 mps 738 mmHg 56%
    19:00 +9°C° 0 mm 3 mps 738 mmHg 57%
    20:00 +8°C° 0 mm 3 mps 738 mmHg 59%
    21:00 +8°C° 0 mm 4 mps 738 mmHg 57%
    22:00 +8°C° 0 mm 5 mps 737 mmHg 55%
    23:00 +8°C° 0 mm 5 mps 737 mmHg 53%

    27 September, Thursday

    Time Temperature Precipitation Wind Pressure Humidity
    00:00 +8°C° 0 mm 5 mps 737 mmHg 53%
    01:00 +8°C° 0 mm 5 mps 737 mmHg 53%
    02:00 +8°C° 0 mm 5 mps 736 mmHg 53%
    03:00 +8°C° 0 mm 5 mps 736 mmHg 50%
    04:00 +8°C° 0 mm 5 mps 735 mmHg 48%
    05:00 +8°C° 0 mm 5 mps 735 mmHg 46%
    06:00 +8°C° 0 mm 5 mps 735 mmHg 46%
    07:00 +8°C° 0 mm 6 mps 734 mmHg 47%
    08:00 +8°C° 0 mm 6 mps 734 mmHg 47%
    09:00 +10°C° 0 mm 6 mps 734 mmHg 45%
    10:00 +12°C° 0 mm 7 mps 734 mmHg 42%
    11:00 +15°C° 0 mm 7 mps 734 mmHg 40%
    12:00 +15°C° 0 mm 7 mps 733 mmHg 39%
    13:00 +16°C° 0 mm 6 mps 733 mmHg 38%
    14:00 +17°C° 0 mm 6 mps 732 mmHg 38%
    15:00 +17°C° 0 mm 5 mps 732 mmHg 41%
    16:00 +17°C° 0 mm 4 mps 731 mmHg 45%
    17:00 +17°C° 0 mm 4 mps 730 mmHg 49%
    18:00 +14°C° 0 mm 4 mps 730 mmHg 51%
    19:00 +13°C° 0 mm 4 mps 730 mmHg 53%
    20:00 +11°C° 0 mm 4 mps 730 mmHg 55%
    21:00 +11°C° 0 mm 4 mps 730 mmHg 53%
    22:00 +10°C° 0 mm 4 mps 729 mmHg 51%
    23:00 +9°C° 0 mm 5 mps 729 mmHg 50%
    Show more